Regional Weather Roundup
Issued by NWS

Home | Current Version | Previous Version | Graphics & Text | Print | Product List | Glossary On
Versions: 1 2 3 4 5 6 7 8 9 10 11 12 13 14 15 16 17 18 19 20 21 22 23 24 25 26 27 28 29 30 31 32 33 34 35 36 37 38 39 40 41 42 43 44 45 46 47 48 49 50
000
ASUS43 KDTX 220010
RWRMI
MICHIGAN HOURLY REGIONAL WEATHER ROUNDUP
NATIONAL WEATHER SERVICE DETROIT/PONTIAC MI
800 PM EDT TUE OCT 21 2014

NOTE: "FAIR" INDICATES FEW OR NO CLOUDS BELOW 12,000 FEET WITH NO
SIGNIFICANT WEATHER AND/OR OBSTRUCTION TO VISIBILITY.

MIZ047>049-052>055-059>063-066>070-074>076-081>083-220100-
SOUTHEAST LOWER MICHIGAN

CITY           SKY/WX    TMP DP  RH WIND       PRES   REMARKS
ADRIAN         CLOUDY    45  36  70 NE10      30.18R
6HR MIN TEMP:  45; 6HR MAX TEMP:  47;

ALMA           CLEAR     40  35  81 E5        30.21R
ANN ARBOR      CLOUDY    45  35  68 N14       30.16R
BAD AXE        CLOUDY    43  37  79 N9G17     30.20R
6HR MIN TEMP:  43; 6HR MAX TEMP:  43;

DETROIT CITY   CLOUDY    47  36  65 N17G28    30.15R
6HR MIN TEMP:  47; 6HR MAX TEMP:  49;

DETROIT        CLOUDY    45  36  70 N15G21    30.16R
6HR MIN TEMP:  45; 6HR MAX TEMP:  48;

FLINT          CLOUDY    45  35  68 NE14      30.21R
6HR MIN TEMP:  45; 6HR MAX TEMP:  46;

GROSSE ILE     CLOUDY    46  37  71 N16G22    30.14R
HILLSDALE      CLOUDY    44  36  72 N5        30.18R
HOWELL         CLOUDY    42  35  75 N9        30.18R

CITY           SKY/WX    TMP DP  RH WIND       PRES   REMARKS
JACKSON        MOCLDY    43  35  73 N6        30.19R
6HR MIN TEMP:  43; 6HR MAX TEMP:  47;

LAMBERTVILLE   CLOUDY    45  37  76 N12G17    30.16R
LANSING        CLEAR     41  33  73 NE3       30.21R
6HR MIN TEMP:  41; 6HR MAX TEMP:  47;

LAPEER         NOT AVBL
MASON          CLEAR     42  35  76 N5        30.20R
MONROE         CLOUDY    45  37  76 N12       30.14R
MT. CLEMENS    CLOUDY    45  38  79 N16       30.12R
6HR MIN TEMP:  44; 6HR MAX TEMP:  46;

PONTIAC        CLOUDY    43  35  73 N12       30.16R
6HR MIN TEMP:  43; 6HR MAX TEMP:  45;

PORT HOPE        N/A     46  37  71 N17G25    30.19R
6HR MIN TEMP:  46; 6HR MAX TEMP:  46;

PORT HURON     DRIZZLE   45  41  87 N7G17     30.14R
TRI CITIES     CLEAR     45  36  70 NE8       30.22R
6HR MIN TEMP:  45; 6HR MAX TEMP:  50; 6HR PCP: TRACE;

YPSILANTI      CLOUDY    48  36  63 N13       30.17R
6HR MIN TEMP:  48; 6HR MAX TEMP:  50;

$$
MIZ043>046-050>051-056>058-064>065-071>073-077>080-220100-
SOUTHWEST LOWER MICHIGAN

CITY           SKY/WX    TMP DP  RH WIND       PRES   REMARKS
BATTLE CREEK   CLEAR     44  34  67 CALM      30.20R
6HR MIN TEMP:  44; 6HR MAX TEMP:  50;

BENTON HARBOR  CLEAR     40  37  89 CALM      30.21R
6HR MIN TEMP:  40; 6HR MAX TEMP:  49;

BIG RAPIDS     CLEAR     44  35  70 N6        30.20R
6HR MIN TEMP:  44; 6HR MAX TEMP:  52;

COLDWATER      CLOUDY    47  38  73 N7        30.18S
6HR MIN TEMP:  47; 6HR MAX TEMP:  50;

HOLLAND        CLEAR     44  37  76 CALM      30.21R
6HR MIN TEMP:  44; 6HR MAX TEMP:  54;

GRAND RAPIDS   CLEAR     44  36  73 CALM      30.20R
6HR MIN TEMP:  44; 6HR MAX TEMP:  52;

KALAMAZOO      CLEAR     43  36  76 CALM      30.20R
6HR MIN TEMP:  43; 6HR MAX TEMP:  50;

MARSHALL       CLEAR     41  35  79 CALM      30.18S
MUSKEGON       CLEAR     47  38  71 N8        30.21R
6HR MIN TEMP:  46; 6HR MAX TEMP:  56;

$$
MIZ016>042-220100-
NORTHERN LOWER MICHIGAN

CITY           SKY/WX    TMP DP  RH WIND       PRES   REMARKS
ALPENA         CLEAR     36  30  79 N3        30.25R
6HR MIN TEMP:  34; 6HR MAX TEMP:  47;

BEAVER ISLAND  CLEAR     38  33  80 CALM      30.27S
6HR MIN TEMP:  38; 6HR MAX TEMP:  49;

BELLAIRE       CLEAR     39  33  77 CALM      30.26R
CADILLAC       CLEAR     38  34  88 N3        30.22R
CHARLEVOIX     CLEAR     43  32  64 NE5       30.29R
6HR MIN TEMP:  43; 6HR MAX TEMP:  47;

FRANKFORT      CLEAR     43  33  68 NE3       30.25S
GAYLORD        CLEAR     37  27  67 CALM      30.24R
6HR MIN TEMP:  37; 6HR MAX TEMP:  47;

GRAYLING       CLEAR     36  27  71 N5        30.25R
6HR MIN TEMP:  36; 6HR MAX TEMP:  51;

HARBOR SPRINGS CLEAR     38  30  70 CALM      30.26R
HOUGHTON LAKE  CLEAR     39  28  64 NE6       30.23R
6HR MIN TEMP:  39; 6HR MAX TEMP:  52;

MANISTEE       CLEAR     43  34  70 NE7       30.25R
OSCODA         CLEAR     38  31  74 N6        30.23R
PELLSTON       CLEAR     35  30  82 CALM      30.27R
6HR MIN TEMP:  34; 6HR MAX TEMP:  49;

TRAVERSE CITY  CLEAR     45  32  60 N7        30.24R
6HR MIN TEMP:  45; 6HR MAX TEMP:  49;

$$
MIZ007>008-015-220100-
EASTERN UPPER MICHIGAN

CITY           SKY/WX    TMP DP  RH WIND       PRES   REMARKS
KINROSS        CLEAR     36  32  87 CALM      30.27R
6HR MIN TEMP:  36; 6HR MAX TEMP:  46;

MACKINAC ISLAN CLEAR     42  32  70 N8        30.27R
6HR MIN TEMP:  42; 6HR MAX TEMP:  48;

NEWBERRY       CLEAR     35  31  86 CALM      30.28R
S. S. MARIE    CLEAR     41  27  57 NE6       30.27R
6HR MIN TEMP:  41; 6HR MAX TEMP:  48;

$$
MIZ004>006-011>014-085-220100-
CENTRAL UPPER MICHIGAN

CITY           SKY/WX    TMP DP  RH WIND       PRES   REMARKS
MANISTIQUE     CLEAR     35  30  82 N6        30.28R
ESCANABA       CLEAR     39  28  65 NE8       30.28R
6HR MIN TEMP:  39; 6HR MAX TEMP:  52;

MENOMINEE      CLEAR     45  30  57 E6        30.25R
6HR MIN TEMP:  43; 6HR MAX TEMP:  50;

SAWYER-GWINN   CLEAR     34  30  86 N5        30.28R
$$
MIZ001>003-009>011-084-220100-
WESTERN UPPER MICHIGAN

CITY           SKY/WX    TMP DP  RH WIND       PRES   REMARKS
IRON MOUNTAIN  CLEAR     43  27  53 E7        30.24R
6HR MIN TEMP:  41; 6HR MAX TEMP:  52;

HOUGHTON       CLEAR     37  31  78 E8        30.26S
6HR MIN TEMP:  37; 6HR MAX TEMP:  46;

COPPER HARBOR    N/A     34  31  88 CALM      30.29S
6HR MIN TEMP:  34; 6HR MAX TEMP:  44;

IRONWOOD       CLEAR     39  36  87 SE3       30.20F
6HR MIN TEMP:  39; 6HR MAX TEMP:  46;

$$

ABBREVIATIONS USED IN REMARKS
   TC - TEMPERATURE IN CELSIUS
  WCI - WIND CHILL INDEX
   HX - HEAT INDEX
  VSB - VISIBILITY




USA.gov is the U.S. government's official web portal to all federal, state and local government web resources and services.